contact:dominique.lefevre@mio.osupytheas.fr, maurice.libes@osupytheas.fr, didier.mallarino@osupytheas.fr
Project:EMSO http://www.emso-fr.org/EMSO-France
Depth: 2436.0 m
Title:EMSO Ligure Ouest : Data MII capteur CSTAR
DateTime,Latitude,Longitude,Instrument_Serial,Reference_Counts,Signal_Counts,Corrected_Signal_raw_counts,Calculated_Beam_c_inverse_meters,Internal_thermistor_counts
DateTime,Latitude,Longitude,Instrument_Serial,Reference_Counts,Signal_Counts,Corrected_Signal_raw_counts,Calculated_Beam_c_inverse_meters,Internal_thermistor_counts
2023-12-21T00:02:22,42.805,6.029,CST-1368DR,4080,4341,11273,01.304,553
2023-12-21T00:05:24,42.805,6.029,CST-1368DR,4080,4343,11277,01.302,553
2023-12-21T00:08:26,42.805,6.029,CST-1368DR,4080,4343,11278,01.302,553
2023-12-21T00:11:27,42.805,6.029,CST-1368DR,4080,4341,11273,01.304,553
2023-12-21T00:14:29,42.805,6.029,CST-1368DR,4080,4342,11274,01.303,553
2023-12-21T00:17:30,42.805,6.029,CST-1368DR,4080,4340,11270,01.305,553
2023-12-21T00:20:32,42.805,6.029,CST-1368DR,4080,4342,11275,01.303,553
2023-12-21T00:23:34,42.805,6.029,CST-1368DR,4080,4340,11270,01.305,553
2023-12-21T00:26:35,42.805,6.029,CST-1368DR,4080,4342,11274,01.303,553
2023-12-21T00:29:37,42.805,6.029,CST-1368DR,4080,4341,11273,01.304,553
2023-12-21T00:32:38,42.805,6.029,CST-1368DR,4080,4338,11264,01.307,553
2023-12-21T00:35:40,42.805,6.029,CST-1368DR,4080,4342,11274,01.303,553
2023-12-21T00:38:41,42.805,6.029,CST-1368DR,4080,4340,11270,01.305,553
2023-12-21T00:41:43,42.805,6.029,CST-1368DR,4080,4340,11270,01.305,553
2023-12-21T00:44:45,42.805,6.029,CST-1368DR,4080,4339,11268,01.305,553
2023-12-21T00:47:46,42.805,6.029,CST-1368DR,4080,4341,11273,01.304,553
2023-12-21T00:50:48,42.805,6.029,CST-1368DR,4080,4340,11270,01.305,553
2023-12-21T00:53:49,42.805,6.029,CST-1368DR,4080,4341,11272,01.304,553
2023-12-21T00:56:51,42.805,6.029,CST-1368DR,4080,4341,11271,01.304,553
2023-12-21T00:59:52,42.805,6.029,CST-1368DR,4080,4339,11268,01.305,553
2023-12-21T01:02:54,42.805,6.029,CST-1368DR,4080,4340,11270,01.305,553
2023-12-21T01:05:56,42.805,6.029,CST-1368DR,4080,4340,11269,01.305,553
2023-12-21T01:08:57,42.805,6.029,CST-1368DR,4080,4341,11271,01.304,553
2023-12-21T01:11:59,42.805,6.029,CST-1368DR,4080,4340,11270,01.305,553
2023-12-21T01:15:00,42.805,6.029,CST-1368DR,4080,4339,11268,01.305,553
2023-12-21T01:18:02,42.805,6.029,CST-1368DR,4080,4339,11266,01.306,553
2023-12-21T01:21:04,42.805,6.029,CST-1368DR,4080,4339,11267,01.306,553
2023-12-21T01:24:05,42.805,6.029,CST-1368DR,4080,4338,11265,01.306,553
2023-12-21T01:27:07,42.805,6.029,CST-1368DR,4080,4339,11266,01.306,553
2023-12-21T01:30:08,42.805,6.029,CST-1368DR,4080,4339,11266,01.306,553
2023-12-21T01:33:10,42.805,6.029,CST-1368DR,4080,4337,11261,01.308,553
2023-12-21T01:36:11,42.805,6.029,CST-1368DR,4080,4336,11259,01.309,553
2023-12-21T01:39:13,42.805,6.029,CST-1368DR,4080,4336,11259,01.309,553
2023-12-21T01:42:15,42.805,6.029,CST-1368DR,4080,4335,11256,01.310,553
2023-12-21T01:45:16,42.805,6.029,CST-1368DR,4080,4335,11257,01.309,553
2023-12-21T01:48:18,42.805,6.029,CST-1368DR,4080,4334,11253,01.311,553
2023-12-21T01:51:19,42.805,6.029,CST-1368DR,4080,4333,11250,01.312,553
2023-12-21T01:54:21,42.805,6.029,CST-1368DR,4080,4331,11247,01.313,553
2023-12-21T01:57:22,42.805,6.029,CST-1368DR,4080,4332,11248,01.312,553
2023-12-21T02:00:24,42.805,6.029,CST-1368DR,4080,4329,11240,01.315,553
2023-12-21T02:03:26,42.805,6.029,CST-1368DR,4080,4342,11275,01.303,553
2023-12-21T02:06:27,42.805,6.029,CST-1368DR,4080,4339,11266,01.306,553
2023-12-21T02:09:29,42.805,6.029,CST-1368DR,4080,4339,11266,01.306,553
2023-12-21T02:12:30,42.805,6.029,CST-1368DR,4080,4339,11266,01.306,553
2023-12-21T02:15:32,42.805,6.029,CST-1368DR,4080,4335,11256,01.310,553
2023-12-21T02:18:34,42.805,6.029,CST-1368DR,4080,4338,11263,01.307,553
2023-12-21T02:21:35,42.805,6.029,CST-1368DR,4080,4338,11263,01.307,553
2023-12-21T02:24:37,42.805,6.029,CST-1368DR,4080,4339,11266,01.306,553
2023-12-21T02:27:38,42.805,6.029,CST-1368DR,4080,4338,11265,01.306,553
2023-12-21T02:30:40,42.805,6.029,CST-1368DR,4080,4340,11269,01.305,553
2023-12-21T02:33:41,42.805,6.029,CST-1368DR,4080,4338,11265,01.306,553
2023-12-21T02:36:43,42.805,6.029,CST-1368DR,4080,4338,11265,01.306,553
2023-12-21T02:39:45,42.805,6.029,CST-1368DR,4080,4340,11269,01.305,553
2023-12-21T02:42:46,42.805,6.029,CST-1368DR,4080,4338,11264,01.307,553
2023-12-21T02:45:48,42.805,6.029,CST-1368DR,4080,4338,11265,01.306,553
2023-12-21T02:48:49,42.805,6.029,CST-1368DR,4080,4339,11267,01.306,553
2023-12-21T02:51:51,42.805,6.029,CST-1368DR,4080,4342,11274,01.303,553
2023-12-21T02:54:52,42.805,6.029,CST-1368DR,4080,4338,11265,01.306,553
2023-12-21T02:57:54,42.805,6.029,CST-1368DR,4080,4338,11265,01.306,553
2023-12-21T03:00:56,42.805,6.029,CST-1368DR,4080,4343,11277,01.302,553
2023-12-21T03:03:57,42.805,6.029,CST-1368DR,4080,4340,11269,01.305,553
2023-12-21T03:06:59,42.805,6.029,CST-1368DR,4080,4339,11268,01.305,553
2023-12-21T03:10:00,42.805,6.029,CST-1368DR,4080,4338,11265,01.306,553
2023-12-21T03:13:02,42.805,6.029,CST-1368DR,4080,4340,11270,01.305,553
2023-12-21T03:16:04,42.805,6.029,CST-1368DR,4080,4341,11272,01.304,553
2023-12-21T03:19:05,42.805,6.029,CST-1368DR,4080,4342,11274,01.303,553
2023-12-21T03:22:07,42.805,6.029,CST-1368DR,4080,4339,11267,01.306,553
2023-12-21T03:25:08,42.805,6.029,CST-1368DR,4080,4341,11273,01.304,553
2023-12-21T03:28:10,42.805,6.029,CST-1368DR,4080,4342,11275,01.303,553
2023-12-21T03:31:11,42.805,6.029,CST-1368DR,4080,4340,11270,01.305,553
2023-12-21T03:34:13,42.805,6.029,CST-1368DR,4080,4341,11273,01.304,553
2023-12-21T03:37:15,42.805,6.029,CST-1368DR,4080,4341,11272,01.304,553
2023-12-21T03:40:16,42.805,6.029,CST-1368DR,4080,4339,11268,01.305,553
2023-12-21T03:43:18,42.805,6.029,CST-1368DR,4080,4339,11266,01.306,553
2023-12-21T03:46:19,42.805,6.029,CST-1368DR,4080,4337,11261,01.308,553
2023-12-21T03:49:21,42.805,6.029,CST-1368DR,4080,4336,11258,01.309,553
2023-12-21T03:52:22,42.805,6.029,CST-1368DR,4080,4335,11255,01.310,553
2023-12-21T03:55:24,42.805,6.029,CST-1368DR,4080,4334,11255,01.310,553
2023-12-21T03:58:26,42.805,6.029,CST-1368DR,4080,4332,11249,01.312,553
2023-12-21T04:01:27,42.805,6.029,CST-1368DR,4080,4333,11252,01.311,553
2023-12-21T04:04:29,42.805,6.029,CST-1368DR,4080,4333,11250,01.312,553
2023-12-21T04:07:30,42.805,6.029,CST-1368DR,4080,4330,11244,01.314,553
2023-12-21T04:10:32,42.805,6.029,CST-1368DR,4080,4328,11238,01.316,553
2023-12-21T04:13:34,42.805,6.029,CST-1368DR,4080,4329,11240,01.315,553
2023-12-21T04:16:35,42.805,6.029,CST-1368DR,4080,4328,11239,01.316,553
2023-12-21T04:19:37,42.805,6.029,CST-1368DR,4080,4327,11237,01.316,553
2023-12-21T04:22:38,42.805,6.029,CST-1368DR,4080,4328,11237,01.316,553
2023-12-21T04:25:40,42.805,6.029,CST-1368DR,4080,4328,11237,01.316,553
2023-12-21T04:28:41,42.805,6.029,CST-1368DR,4080,4327,11235,01.317,553
2023-12-21T04:31:43,42.805,6.029,CST-1368DR,4080,4339,11266,01.306,553
2023-12-21T04:34:45,42.805,6.029,CST-1368DR,4080,4331,11247,01.313,553
2023-12-21T04:37:46,42.805,6.029,CST-1368DR,4080,4329,11240,01.315,553
2023-12-21T04:40:48,42.805,6.029,CST-1368DR,4080,4327,11237,01.316,553
2023-12-21T04:43:49,42.805,6.029,CST-1368DR,4080,4326,11233,01.318,553
2023-12-21T04:46:51,42.805,6.029,CST-1368DR,4080,4326,11232,01.318,553
2023-12-21T04:49:52,42.805,6.029,CST-1368DR,4080,4326,11234,01.317,553
2023-12-21T04:52:54,42.805,6.029,CST-1368DR,4080,4326,11232,01.318,553
2023-12-21T04:55:56,42.805,6.029,CST-1368DR,4080,4324,11229,01.319,553
2023-12-21T04:58:57,42.805,6.029,CST-1368DR,4080,4324,11227,01.320,553
2023-12-21T05:01:59,42.805,6.029,CST-1368DR,4080,4326,11234,01.317,553
2023-12-21T05:05:00,42.805,6.029,CST-1368DR,4080,4325,11230,01.319,553
2023-12-21T05:08:02,42.805,6.029,CST-1368DR,4080,4327,11236,01.317,553
2023-12-21T05:11:04,42.805,6.029,CST-1368DR,4080,4324,11227,01.320,553
2023-12-21T05:14:05,42.805,6.029,CST-1368DR,4080,4325,11230,01.319,553
2023-12-21T05:17:07,42.805,6.029,CST-1368DR,4080,4326,11233,01.318,553
2023-12-21T05:20:08,42.805,6.029,CST-1368DR,4080,4324,11229,01.319,553
2023-12-21T05:23:10,42.805,6.029,CST-1368DR,4080,4323,11225,01.321,553
2023-12-21T05:26:11,42.805,6.029,CST-1368DR,4080,4324,11227,01.320,553
2023-12-21T05:29:13,42.805,6.029,CST-1368DR,4080,4321,11220,01.322,553
2023-12-21T05:32:15,42.805,6.029,CST-1368DR,4080,4340,11269,01.305,553
2023-12-21T05:35:16,42.805,6.029,CST-1368DR,4080,4322,11223,01.321,553
2023-12-21T05:38:18,42.805,6.029,CST-1368DR,4080,4320,11218,01.323,553
2023-12-21T05:41:19,42.805,6.029,CST-1368DR,4080,4318,11212,01.325,553
2023-12-21T05:44:21,42.805,6.029,CST-1368DR,4080,4320,11216,01.324,553
2023-12-21T05:47:22,42.805,6.029,CST-1368DR,4080,4322,11222,01.322,553
2023-12-21T05:50:24,42.805,6.029,CST-1368DR,4080,4318,11212,01.325,553
2023-12-21T05:53:26,42.805,6.029,CST-1368DR,4080,4314,11201,01.329,552
2023-12-21T05:56:27,42.805,6.029,CST-1368DR,4080,4316,11207,01.327,553
2023-12-21T05:59:29,42.805,6.029,CST-1368DR,4080,4332,11249,01.312,553
2023-12-21T06:02:30,42.805,6.029,CST-1368DR,4080,4328,11239,01.316,553
2023-12-21T06:05:32,42.805,6.029,CST-1368DR,4080,4328,11237,01.316,553
2023-12-21T06:08:33,42.805,6.029,CST-1368DR,4080,4327,11236,01.317,553
2023-12-21T06:11:35,42.805,6.029,CST-1368DR,4080,4327,11236,01.317,553
2023-12-21T06:14:37,42.805,6.029,CST-1368DR,4080,4327,11236,01.317,553
2023-12-21T06:17:38,42.805,6.029,CST-1368DR,4080,4327,11237,01.316,553
2023-12-21T06:20:40,42.805,6.029,CST-1368DR,4080,4327,11236,01.317,553
2023-12-21T06:23:41,42.805,6.029,CST-1368DR,4080,4327,11235,01.317,553
2023-12-21T06:26:43,42.805,6.029,CST-1368DR,4080,4327,11237,01.316,553
2023-12-21T06:29:45,42.805,6.029,CST-1368DR,4080,4326,11234,01.317,553
2023-12-21T06:32:46,42.805,6.029,CST-1368DR,4080,4325,11231,01.318,553
2023-12-21T06:35:48,42.805,6.029,CST-1368DR,4080,4325,11230,01.319,553
2023-12-21T06:38:49,42.805,6.029,CST-1368DR,4080,4329,11240,01.315,553
2023-12-21T06:41:51,42.805,6.029,CST-1368DR,4080,4326,11232,01.318,553
2023-12-21T06:44:52,42.805,6.029,CST-1368DR,4080,4325,11230,01.319,553
2023-12-21T06:47:54,42.805,6.029,CST-1368DR,4080,4325,11231,01.318,553
2023-12-21T06:50:56,42.805,6.029,CST-1368DR,4080,4325,11230,01.319,553
2023-12-21T06:53:57,42.805,6.029,CST-1368DR,4080,4326,11234,01.317,553
2023-12-21T06:56:59,42.805,6.029,CST-1368DR,4080,4330,11244,01.314,553
2023-12-21T07:00:00,42.805,6.029,CST-1368DR,4080,4324,11227,01.320,553
2023-12-21T07:03:02,42.805,6.029,CST-1368DR,4080,4322,11224,01.321,553
2023-12-21T07:06:03,42.805,6.029,CST-1368DR,4080,4325,11230,01.319,553
2023-12-21T07:09:05,42.805,6.029,CST-1368DR,4080,4324,11227,01.320,553
2023-12-21T07:12:07,42.805,6.029,CST-1368DR,4080,4325,11230,01.319,553
2023-12-21T07:15:08,42.805,6.029,CST-1368DR,4080,4324,11229,01.319,553
2023-12-21T07:18:10,42.805,6.029,CST-1368DR,4080,4325,11229,01.319,553
2023-12-21T07:21:11,42.805,6.029,CST-1368DR,4080,4325,11229,01.319,553
2023-12-21T07:24:13,42.805,6.029,CST-1368DR,4080,4319,11214,01.325,553
2023-12-21T07:27:15,42.805,6.029,CST-1368DR,4080,4324,11228,01.320,553
2023-12-21T07:30:17,42.805,6.029,CST-1368DR,4080,4325,11229,01.319,553
2023-12-21T07:33:19,42.805,6.029,CST-1368DR,4080,4325,11229,01.319,553
2023-12-21T07:36:20,42.805,6.029,CST-1368DR,4080,4326,11233,01.318,553
2023-12-21T07:39:22,42.805,6.029,CST-1368DR,4080,4325,11231,01.318,553
2023-12-21T07:42:23,42.805,6.029,CST-1368DR,4080,4324,11228,01.320,553
2023-12-21T07:45:25,42.805,6.029,CST-1368DR,4080,4325,11230,01.319,553
2023-12-21T07:48:27,42.805,6.029,CST-1368DR,4080,4325,11231,01.318,553
2023-12-21T07:51:28,42.805,6.029,CST-1368DR,4080,4324,11228,01.320,553
2023-12-21T07:54:30,42.805,6.029,CST-1368DR,4080,4323,11224,01.321,553
2023-12-21T07:57:31,42.805,6.029,CST-1368DR,4080,4323,11225,01.321,553
2023-12-21T08:00:33,42.805,6.029,CST-1368DR,4080,4318,11213,01.325,553
2023-12-21T08:03:35,42.805,6.029,CST-1368DR,4080,4322,11222,01.322,553
2023-12-21T08:06:36,42.805,6.029,CST-1368DR,4080,4320,11218,01.323,553
2023-12-21T08:09:38,42.805,6.029,CST-1368DR,4080,4323,11226,01.320,553
2023-12-21T08:12:39,42.805,6.029,CST-1368DR,4080,4322,11222,01.322,553
2023-12-21T08:15:41,42.805,6.029,CST-1368DR,4080,4321,11220,01.322,553
2023-12-21T08:18:42,42.805,6.029,CST-1368DR,4080,4320,11217,01.323,553
2023-12-21T08:21:44,42.805,6.029,CST-1368DR,4080,4322,11224,01.321,553
2023-12-21T08:24:46,42.805,6.029,CST-1368DR,4080,4322,11223,01.321,553
2023-12-21T08:27:47,42.805,6.029,CST-1368DR,4080,4321,11219,01.323,553
2023-12-21T08:30:49,42.805,6.029,CST-1368DR,4080,4322,11223,01.321,553
2023-12-21T08:33:50,42.805,6.029,CST-1368DR,4080,4323,11224,01.321,553
2023-12-21T08:36:52,42.805,6.029,CST-1368DR,4080,4322,11222,01.322,553
2023-12-21T08:39:53,42.805,6.029,CST-1368DR,4080,4321,11221,01.322,553
2023-12-21T08:42:55,42.805,6.029,CST-1368DR,4080,4320,11218,01.323,553
2023-12-21T08:45:57,42.805,6.029,CST-1368DR,4080,4330,11244,01.314,553
2023-12-21T08:48:58,42.805,6.029,CST-1368DR,4080,4319,11214,01.325,553
2023-12-21T08:52:00,42.805,6.029,CST-1368DR,4080,4322,11222,01.322,553
2023-12-21T08:55:01,42.805,6.029,CST-1368DR,4080,4322,11222,01.322,553
2023-12-21T08:58:03,42.805,6.029,CST-1368DR,4080,4320,11216,01.324,553
2023-12-21T09:01:04,42.805,6.029,CST-1368DR,4080,4321,11219,01.323,553
2023-12-21T09:04:06,42.805,6.029,CST-1368DR,4080,4321,11221,01.322,552
2023-12-21T09:07:08,42.805,6.029,CST-1368DR,4080,4320,11216,01.324,553
2023-12-21T09:10:09,42.805,6.029,CST-1368DR,4080,4320,11216,01.324,553
2023-12-21T09:13:11,42.805,6.029,CST-1368DR,4080,4319,11214,01.325,553
2023-12-21T09:16:12,42.805,6.029,CST-1368DR,4080,4321,11220,01.322,553
2023-12-21T09:19:14,42.805,6.029,CST-1368DR,4080,4321,11220,01.322,553
2023-12-21T09:22:16,42.805,6.029,CST-1368DR,4080,4321,11221,01.322,553
2023-12-21T09:25:17,42.805,6.029,CST-1368DR,4080,4321,11220,01.322,553
2023-12-21T09:28:19,42.805,6.029,CST-1368DR,4080,4313,11199,01.330,553
2023-12-21T09:31:20,42.805,6.029,CST-1368DR,4080,4321,11219,01.323,553
2023-12-21T09:34:22,42.805,6.029,CST-1368DR,4080,4321,11221,01.322,553
2023-12-21T09:37:24,42.805,6.029,CST-1368DR,4080,4321,11220,01.322,553
2023-12-21T09:40:25,42.805,6.029,CST-1368DR,4080,4322,11222,01.322,553
2023-12-21T09:43:27,42.805,6.029,CST-1368DR,4080,4321,11220,01.322,553
2023-12-21T09:46:28,42.805,6.029,CST-1368DR,4080,4319,11214,01.325,553
2023-12-21T09:49:30,42.805,6.029,CST-1368DR,4080,4319,11214,01.325,553
2023-12-21T09:52:32,42.805,6.029,CST-1368DR,4080,4321,11221,01.322,553
2023-12-21T09:55:33,42.805,6.029,CST-1368DR,4080,4321,11221,01.322,553
2023-12-21T09:58:35,42.805,6.029,CST-1368DR,4080,4320,11217,01.323,553
2023-12-21T10:01:36,42.805,6.029,CST-1368DR,4080,4320,11218,01.323,553
2023-12-21T10:04:38,42.805,6.029,CST-1368DR,4080,4319,11215,01.324,553
2023-12-21T10:07:39,42.805,6.029,CST-1368DR,4080,4320,11218,01.323,553
2023-12-21T10:10:41,42.805,6.029,CST-1368DR,4080,4319,11215,01.324,553
2023-12-21T10:13:43,42.805,6.029,CST-1368DR,4080,4318,11211,01.326,553
2023-12-21T10:16:44,42.805,6.029,CST-1368DR,4080,4319,11215,01.324,553
2023-12-21T10:19:46,42.805,6.029,CST-1368DR,4080,4321,11221,01.322,553
2023-12-21T10:22:47,42.805,6.029,CST-1368DR,4080,4319,11215,01.324,553
2023-12-21T10:25:49,42.805,6.029,CST-1368DR,4080,4318,11212,01.325,553
2023-12-21T10:28:50,42.805,6.029,CST-1368DR,4080,4320,11217,01.323,553
2023-12-21T10:31:52,42.805,6.029,CST-1368DR,4080,4321,11219,01.323,553
2023-12-21T10:34:54,42.805,6.029,CST-1368DR,4080,4320,11218,01.323,553
2023-12-21T10:37:55,42.805,6.029,CST-1368DR,4080,4321,11220,01.322,553
2023-12-21T10:40:57,42.805,6.029,CST-1368DR,4080,4320,11218,01.323,553
2023-12-21T10:43:58,42.805,6.029,CST-1368DR,4080,4321,11220,01.322,553
2023-12-21T10:47:00,42.805,6.029,CST-1368DR,4080,4321,11220,01.322,553
2023-12-21T10:50:01,42.805,6.029,CST-1368DR,4080,4323,11224,01.321,553
2023-12-21T10:53:03,42.805,6.029,CST-1368DR,4080,4322,11222,01.322,553
2023-12-21T10:56:05,42.805,6.029,CST-1368DR,4080,4322,11222,01.322,553
2023-12-21T10:59:06,42.805,6.029,CST-1368DR,4080,4322,11222,01.322,553
2023-12-21T11:02:08,42.805,6.029,CST-1368DR,4080,4321,11220,01.322,553
2023-12-21T11:05:09,42.805,6.029,CST-1368DR,4080,4320,11217,01.323,553
2023-12-21T11:08:11,42.805,6.029,CST-1368DR,4080,4322,11223,01.321,553
2023-12-21T11:11:13,42.805,6.029,CST-1368DR,4080,4319,11214,01.325,553
2023-12-21T11:14:14,42.805,6.029,CST-1368DR,4080,4321,11221,01.322,553
2023-12-21T11:17:16,42.805,6.029,CST-1368DR,4080,4322,11222,01.322,553
2023-12-21T11:20:17,42.805,6.029,CST-1368DR,4080,4322,11222,01.322,553
2023-12-21T11:23:19,42.805,6.029,CST-1368DR,4080,4322,11222,01.322,553
2023-12-21T11:26:20,42.805,6.029,CST-1368DR,4080,4322,11222,01.322,553
2023-12-21T11:29:22,42.805,6.029,CST-1368DR,4080,4321,11220,01.322,553
2023-12-21T11:32:24,42.805,6.029,CST-1368DR,4080,4320,11218,01.323,553
2023-12-21T11:35:25,42.805,6.029,CST-1368DR,4080,4318,11212,01.325,553
2023-12-21T11:38:27,42.805,6.029,CST-1368DR,4080,4317,11209,01.326,553
2023-12-21T11:41:28,42.805,6.029,CST-1368DR,4080,4319,11215,01.324,553
2023-12-21T11:44:30,42.805,6.029,CST-1368DR,4080,4320,11218,01.323,553
2023-12-21T11:47:32,42.805,6.029,CST-1368DR,4080,4320,11217,01.323,553
2023-12-21T11:50:33,42.805,6.029,CST-1368DR,4080,4324,11228,01.320,553
2023-12-21T11:53:35,42.805,6.029,CST-1368DR,4080,4320,11218,01.323,553
2023-12-21T11:56:36,42.805,6.029,CST-1368DR,4080,4320,11218,01.323,553
2023-12-21T11:59:38,42.805,6.029,CST-1368DR,4080,4318,11213,01.325,553
2023-12-21T12:02:40,42.805,6.029,CST-1368DR,4080,4320,11217,01.323,553
2023-12-21T12:05:41,42.805,6.029,CST-1368DR,4080,4319,11214,01.325,553
2023-12-21T12:08:43,42.805,6.029,CST-1368DR,4080,4314,11201,01.329,553
2023-12-21T12:11:44,42.805,6.029,CST-1368DR,4080,4321,11219,01.323,553
2023-12-21T12:14:46,42.805,6.029,CST-1368DR,4080,4331,11246,01.313,553
2023-12-21T12:17:47,42.805,6.029,CST-1368DR,4080,4327,11235,01.317,553
2023-12-21T12:20:49,42.805,6.029,CST-1368DR,4080,4324,11227,01.320,553
2023-12-21T12:23:51,42.805,6.029,CST-1368DR,4080,4324,11227,01.320,553
2023-12-21T12:26:52,42.805,6.029,CST-1368DR,4080,4322,11223,01.321,553
2023-12-21T12:29:54,42.805,6.029,CST-1368DR,4080,4321,11220,01.322,553
2023-12-21T12:32:55,42.805,6.029,CST-1368DR,4080,4321,11221,01.322,553
2023-12-21T12:35:57,42.805,6.029,CST-1368DR,4080,4322,11223,01.321,553
2023-12-21T12:38:58,42.805,6.029,CST-1368DR,4080,4322,11222,01.322,553
2023-12-21T12:42:00,42.805,6.029,CST-1368DR,4080,4321,11219,01.323,552
2023-12-21T12:45:02,42.805,6.029,CST-1368DR,4080,4320,11218,01.323,553
2023-12-21T12:48:03,42.805,6.029,CST-1368DR,4080,4327,11237,01.316,553
2023-12-21T12:51:05,42.805,6.029,CST-1368DR,4080,4319,11214,01.325,553
2023-12-21T12:54:06,42.805,6.029,CST-1368DR,4080,4319,11214,01.325,553
2023-12-21T12:57:08,42.805,6.029,CST-1368DR,4080,4320,11217,01.323,553
2023-12-21T13:00:10,42.805,6.029,CST-1368DR,4080,4320,11216,01.324,553
2023-12-21T13:03:11,42.805,6.029,CST-1368DR,4080,4320,11216,01.324,553
2023-12-21T13:06:13,42.805,6.029,CST-1368DR,4080,4318,11213,01.325,553
2023-12-21T13:09:14,42.805,6.029,CST-1368DR,4080,4320,11216,01.324,553
2023-12-21T13:12:16,42.805,6.029,CST-1368DR,4080,4319,11215,01.324,553
2023-12-21T13:15:17,42.805,6.029,CST-1368DR,4080,4320,11218,01.323,553
2023-12-21T13:18:19,42.805,6.029,CST-1368DR,4080,4320,11216,01.324,553
2023-12-21T13:21:21,42.805,6.029,CST-1368DR,4080,4320,11218,01.323,553
2023-12-21T13:24:22,42.805,6.029,CST-1368DR,4080,4320,11217,01.323,553
2023-12-21T13:27:24,42.805,6.029,CST-1368DR,4080,4321,11219,01.323,553
2023-12-21T13:30:27,42.805,6.029,CST-1368DR,4080,4321,11220,01.322,553
2023-12-21T13:33:28,42.805,6.029,CST-1368DR,4080,4321,11219,01.323,553
2023-12-21T13:36:30,42.805,6.029,CST-1368DR,4080,4319,11215,01.324,553
2023-12-21T13:39:32,42.805,6.029,CST-1368DR,4080,4320,11218,01.323,553
2023-12-21T13:42:33,42.805,6.029,CST-1368DR,4080,4320,11217,01.323,553
2023-12-21T13:45:35,42.805,6.029,CST-1368DR,4080,4319,11214,01.325,553
2023-12-21T13:48:36,42.805,6.029,CST-1368DR,4080,4320,11217,01.323,553
2023-12-21T13:51:38,42.805,6.029,CST-1368DR,4080,4320,11218,01.323,553
2023-12-21T13:54:39,42.805,6.029,CST-1368DR,4080,4327,11236,01.317,553
2023-12-21T13:57:41,42.805,6.029,CST-1368DR,4080,4320,11216,01.324,553
2023-12-21T14:00:43,42.805,6.029,CST-1368DR,4080,4319,11214,01.325,553
2023-12-21T14:03:44,42.805,6.029,CST-1368DR,4080,4316,11206,01.327,553
2023-12-21T14:06:46,42.805,6.029,CST-1368DR,4080,4320,11216,01.324,553
2023-12-21T14:09:47,42.805,6.029,CST-1368DR,4080,4320,11218,01.323,553
2023-12-21T14:12:49,42.805,6.029,CST-1368DR,4080,4320,11218,01.323,553
2023-12-21T14:15:51,42.805,6.029,CST-1368DR,4080,4319,11215,01.324,553
2023-12-21T14:18:52,42.805,6.029,CST-1368DR,4080,4321,11220,01.322,553
2023-12-21T14:21:54,42.805,6.029,CST-1368DR,4080,4318,11212,01.325,553
2023-12-21T14:24:55,42.805,6.029,CST-1368DR,4080,4320,11218,01.323,553
2023-12-21T14:27:57,42.805,6.029,CST-1368DR,4080,4320,11218,01.323,553
2023-12-21T14:30:58,42.805,6.029,CST-1368DR,4080,4318,11213,01.325,553
2023-12-21T14:34:00,42.805,6.029,CST-1368DR,4080,4320,11218,01.323,553
2023-12-21T14:37:02,42.805,6.029,CST-1368DR,4080,4319,11215,01.324,553
2023-12-21T14:40:03,42.805,6.029,CST-1368DR,4080,4321,11220,01.322,553
2023-12-21T14:43:05,42.805,6.029,CST-1368DR,4080,4322,11222,01.322,553
2023-12-21T14:46:06,42.805,6.029,CST-1368DR,4080,4321,11220,01.322,553
2023-12-21T14:49:08,42.805,6.029,CST-1368DR,4080,4321,11221,01.322,553
2023-12-21T14:52:09,42.805,6.029,CST-1368DR,4080,4322,11223,01.321,553
2023-12-21T14:55:11,42.805,6.029,CST-1368DR,4080,4321,11221,01.322,553
2023-12-21T14:58:13,42.805,6.029,CST-1368DR,4080,4322,11222,01.322,553
2023-12-21T15:01:14,42.805,6.029,CST-1368DR,4079,4321,11224,01.321,553
2023-12-21T15:04:16,42.805,6.029,CST-1368DR,4079,4321,11222,01.322,553
2023-12-21T15:07:17,42.805,6.029,CST-1368DR,4079,4320,11221,01.322,553
2023-12-21T15:10:19,42.805,6.029,CST-1368DR,4079,4321,11223,01.321,553
2023-12-21T15:13:21,42.805,6.029,CST-1368DR,4079,4322,11226,01.320,553
2023-12-21T15:16:22,42.805,6.029,CST-1368DR,4079,4320,11220,01.322,553
2023-12-21T15:19:24,42.805,6.029,CST-1368DR,4079,4320,11219,01.323,553
2023-12-21T15:22:25,42.805,6.029,CST-1368DR,4079,4321,11223,01.321,553
2023-12-21T15:25:27,42.805,6.029,CST-1368DR,4079,4321,11222,01.322,553
2023-12-21T15:28:28,42.805,6.029,CST-1368DR,4079,4320,11219,01.323,553
2023-12-21T15:31:30,42.805,6.029,CST-1368DR,4079,4319,11216,01.324,553
2023-12-21T15:34:32,42.805,6.029,CST-1368DR,4079,4317,11213,01.325,553
2023-12-21T15:37:33,42.805,6.029,CST-1368DR,4079,4319,11217,01.323,553
2023-12-21T15:40:35,42.805,6.029,CST-1368DR,4079,4320,11219,01.323,552
2023-12-21T15:43:36,42.805,6.029,CST-1368DR,4079,4319,11218,01.323,553
2023-12-21T15:46:38,42.805,6.029,CST-1368DR,4079,4318,11216,01.324,553
2023-12-21T15:49:40,42.805,6.029,CST-1368DR,4079,4319,11217,01.323,553
2023-12-21T15:52:41,42.805,6.029,CST-1368DR,4079,4319,11216,01.324,553
2023-12-21T15:55:43,42.805,6.029,CST-1368DR,4080,4318,11212,01.325,553
2023-12-21T15:58:44,42.805,6.029,CST-1368DR,4079,4319,11216,01.324,553
2023-12-21T16:01:46,42.805,6.029,CST-1368DR,4080,4319,11215,01.324,553
2023-12-21T16:04:48,42.805,6.029,CST-1368DR,4080,4317,11210,01.326,553
2023-12-21T16:07:49,42.805,6.029,CST-1368DR,4079,4311,11197,01.331,553
2023-12-21T16:10:51,42.805,6.029,CST-1368DR,4080,4319,11214,01.325,553
2023-12-21T16:13:52,42.805,6.029,CST-1368DR,4079,4319,11218,01.323,553
2023-12-21T16:16:54,42.805,6.029,CST-1368DR,4079,4318,11214,01.325,553
2023-12-21T16:19:55,42.805,6.029,CST-1368DR,4080,4318,11213,01.325,553
2023-12-21T16:22:57,42.805,6.029,CST-1368DR,4080,4319,11215,01.324,553
2023-12-21T16:25:59,42.805,6.029,CST-1368DR,4079,4317,11211,01.326,553
2023-12-21T16:29:00,42.805,6.029,CST-1368DR,4079,4320,11220,01.322,553
2023-12-21T16:32:02,42.805,6.029,CST-1368DR,4079,4318,11216,01.324,553
2023-12-21T16:35:03,42.805,6.029,CST-1368DR,4080,4318,11212,01.325,553
2023-12-21T16:38:05,42.805,6.029,CST-1368DR,4080,4321,11219,01.323,553